Weather History for Mobridge, SD

Change the Weather History Date:

Wednesday, March 28, 2012

  Actual Average Record
Temperature  
Mean Temperature 44 °F 37 °F  
Max Temperature 63 °F 49 °F 83 °F (1946)
Min Temperature 24 °F 26 °F -4 °F (1913)
Degree Days  
Heating Degree Days 21 28  
Month to date heating degree days 594 947  
Since 1 July heating degree days 5883 6922  
Cooling Degree Days 0 0  
Month to date cooling degree days 0 0  
Year to date cooling degree days 0 0  
Moisture  
Dew Point 31 °F    
Average Humidity 67    
Maximum Humidity 100    
Minimum Humidity 34    
Precipitation  
Precipitation 0.00 in 0.04 in 0.70 in (1931)
Month to date precipitation 0.13 0.78  
Year to date precipitation 1.48 1.51  
Snow  
Snow 0.00 in - - ()
Month to date snowfall 1.0  
Since 1 July snowfall 17.0  
Snow Depth 0.00 in    
Sea Level Pressure  
Sea Level Pressure 29.98 in    
Wind  
Wind Speed 11 mph (East)    
Max Wind Speed 28 mph    
Max Gust Speed 37 mph    
Visibility 7 miles    
Events Fog    
T = Trace of Precipitation, MM = Missing Value Source: NWS Daily Summary

Daily Weather History Graph

Daily Weather History Graph

Search for Another Location

Airport:

Trip Planner

Search our weather history database for the weather conditions in past years. The results will help you decide how hot, cold, wet, or windy it might be!

Date:

Astronomy

Mar. 28, 2012 Rise Set
Actual Time 7:28 AM CDT 8:05 PM CDT
Civil Twilight 6:58 AM CDT 8:35 PM CDT
Nautical Twilight 6:23 AM CDT 9:10 PM CDT
Astronomical Twilight 5:46 AM CDT 9:47 PM CDT
Moon 10:31 AM CDT (3/28) 1:24 AM CDT (3/28)
Length of Visible Light 13h 36m
Length of Day
12h 36m
Waxing Crescent, 30% of the Moon is Illuminated
Mar 28
Waxing Crescent
Mar 30
First Quarter
Apr 6
Full
Apr 13
Last Quarter
Apr 21
New

Hourly Weather History & Observations

Time (CDT) Temp. Windchill Dew Point Humidity Pressure Visibility Wind Dir Wind Speed Gust Speed Precip Events Conditions
12:52 AM 35.1 °F 31.0 °F 32.0 °F 89% 29.98 in 10.0 mi ENE 4.6 mph - N/A   Clear
1:52 AM 28.9 °F 23.9 °F 28.9 °F 100% 30.00 in 10.0 mi South 4.6 mph - N/A   Clear
2:52 AM 27.0 °F 23.0 °F 25.0 °F 92% 30.00 in 10.0 mi North 3.5 mph - N/A   Clear
3:52 AM 27.0 °F - 26.1 °F 96% 30.00 in 8.0 mi Calm Calm - N/A   Clear
4:32 AM 24.8 °F - 24.8 °F 100% 29.97 in 1.5 mi Calm Calm - N/A   Clear
4:52 AM 24.1 °F - 24.1 °F 100% 30.00 in 1.0 mi Calm Calm - N/A   Clear
5:07 AM 26.6 °F 22.6 °F 24.8 °F 93% 29.96 in 1.0 mi NNE 3.5 mph - N/A   Mist
5:19 AM 26.6 °F 21.2 °F 26.6 °F 100% 29.96 in 0.2 mi North 4.6 mph - N/A Fog Light Freezing Fog
5:38 AM 28.4 °F 21.2 °F 28.4 °F 100% 29.97 in 2.0 mi North 6.9 mph - N/A   Mostly Cloudy
5:41 AM 28.4 °F 21.2 °F 28.4 °F 100% 29.97 in 5.0 mi North 6.9 mph - N/A   Scattered Clouds
5:52 AM 28.0 °F - 27.0 °F 96% 30.00 in 6.0 mi Calm Calm - N/A   Partly Cloudy
6:52 AM 25.0 °F 19.3 °F 24.1 °F 96% 30.04 in 6.0 mi South 4.6 mph - N/A   Partly Cloudy
7:05 AM 26.6 °F 22.6 °F 26.6 °F 100% 30.01 in 2.5 mi SSE 3.5 mph - N/A   Mostly Cloudy
7:10 AM 28.4 °F 22.2 °F 28.4 °F 100% 30.01 in 0.8 mi South 5.8 mph - N/A   Mist
7:31 AM 30.2 °F 26.7 °F 30.2 °F 100% 30.02 in 1.8 mi SE 3.5 mph - N/A   Overcast
7:38 AM 30.2 °F 26.7 °F 30.2 °F 100% 30.02 in 2.0 mi SE 3.5 mph - N/A   Overcast
7:52 AM 30.9 °F - 30.0 °F 96% 30.05 in 2.5 mi Calm Calm - N/A   Overcast
8:01 AM 30.2 °F 26.7 °F 30.2 °F 100% 30.02 in 4.0 mi ENE 3.5 mph - N/A   Scattered Clouds
8:52 AM 36.0 °F 32.1 °F 35.1 °F 97% 30.07 in 10.0 mi East 4.6 mph - N/A   Clear
9:52 AM 37.0 °F 30.4 °F 34.0 °F 89% 30.08 in 8.0 mi ENE 9.2 mph - N/A   Clear
10:21 AM 37.4 °F 30.3 °F 35.6 °F 93% 30.03 in 7.0 mi ENE 10.4 mph - N/A   Scattered Clouds
10:31 AM 35.6 °F 28.0 °F 33.8 °F 93% 30.03 in 4.0 mi ENE 10.4 mph - N/A   Mostly Cloudy
10:52 AM 37.0 °F 27.4 °F 34.0 °F 89% 30.06 in 7.0 mi ENE 17.3 mph - N/A   Mostly Cloudy
11:10 AM 39.2 °F 30.8 °F 33.8 °F 81% 30.01 in 9.0 mi ENE 15.0 mph 21.9 mph N/A   Partly Cloudy
11:52 AM 43.0 °F 37.7 °F 35.1 °F 74% 30.04 in 10.0 mi East 9.2 mph - N/A   Clear
12:52 PM 48.9 °F - 36.0 °F 61% 30.03 in 10.0 mi East 6.9 mph - N/A   Clear
1:52 PM 55.9 °F - 37.0 °F 49% 29.99 in 10.0 mi East 9.2 mph - N/A   Clear
2:52 PM 61.0 °F - 35.1 °F 38% 29.95 in 10.0 mi East 11.5 mph 19.6 mph N/A   Clear
3:52 PM 62.1 °F - 35.1 °F 37% 29.93 in 10.0 mi ESE 16.1 mph 23.0 mph N/A   Clear
4:52 PM 62.1 °F - 33.1 °F 34% 29.91 in 10.0 mi SE 15.0 mph 24.2 mph N/A   Clear
5:52 PM 59.0 °F - 33.1 °F 38% 29.89 in 10.0 mi SE 18.4 mph 25.3 mph N/A   Clear
6:52 PM 57.0 °F - 34.0 °F 42% 29.89 in 10.0 mi ESE 20.7 mph 26.5 mph N/A   Clear
7:52 PM 52.0 °F - 35.1 °F 53% 29.88 in 10.0 mi ESE 15.0 mph - N/A   Clear
8:52 PM 48.0 °F - 35.1 °F 61% 29.87 in 10.0 mi East 13.8 mph - N/A   Clear
9:52 PM 46.0 °F 38.0 °F 36.0 °F 68% 29.85 in 10.0 mi East 21.9 mph 31.1 mph N/A   Clear
10:52 PM 44.1 °F 34.4 °F 35.1 °F 71% 29.84 in 10.0 mi East 27.6 mph 36.8 mph N/A   Clear
11:52 PM 44.1 °F 35.7 °F 35.1 °F 71% 29.83 in 10.0 mi ESE 20.7 mph 28.8 mph N/A   Clear